Date,TemperatureHighF,TemperatureAvgF,TemperatureLowF,DewpointHighF,DewpointAvgF,DewpointLowF,HumidityHigh,HumidityAvg,HumidityLow,PressureMaxIn,PressureMinIn,WindSpeedMaxMPH,WindSpeedAvgMPH,GustSpeedMaxMPH,PrecipitationSumIn
2013-5-1,66.5,59.8,51.5,59.0,56.1,50.4,97,88,75,30.19,30.08,16,1,16,0.00
2013-5-2,61.8,58.0,55.5,58.8,56.2,54.4,97,94,89,30.20,30.13,14,1,14,0.07
2013-5-3,65.5,59.7,55.5,58.2,55.2,52.8,96,85,72,30.14,30.00,13,1,15,0.01
2013-5-4,59.0,54.9,50.0,53.5,49.5,44.4,93,82,74,30.01,29.88,16,1,16,0.04
2013-5-5,57.8,51.7,49.1,57.2,50.7,48.0,98,96,93,29.93,29.73,22,2,22,3.93
2013-5-6,68.3,59.5,51.4,59.9,54.4,48.0,98,85,55,29.82,29.72,14,0,14,0.29
2013-5-7,72.0,56.0,44.3,55.7,50.3,43.0,96,83,48,29.86,29.77,19,0,21,0.01
2013-5-8,74.0,62.6,48.8,61.6,56.0,47.7,97,81,59,29.93,29.82,10,0,10,0.02
2013-5-9,82.4,65.9,50.2,63.7,57.6,49.1,97,77,49,30.00,29.91,9,0,9,0.00
2013-5-10,80.7,67.5,52.7,67.0,60.3,51.6,97,80,56,29.99,29.87,17,1,17,0.00
2013-5-11,78.8,69.3,61.3,67.0,62.9,59.5,96,81,63,29.88,29.72,19,1,19,0.09
2013-5-12,71.5,62.0,51.5,60.2,48.0,30.9,96,64,25,29.96,29.77,24,2,24,0.00
2013-5-13,68.2,55.1,37.9,45.2,38.3,31.5,95,58,26,30.09,29.96,22,2,22,0.00
2013-5-14,73.0,58.5,38.8,52.8,45.3,36.3,92,64,42,30.16,29.98,13,1,13,0.00
2013-5-15,89.3,72.7,55.5,69.6,60.8,51.9,91,68,48,29.99,29.85,13,1,13,0.00
2013-5-16,82.2,70.6,57.6,66.2,61.2,55.4,94,74,50,29.95,29.87,10,0,10,0.00
2013-5-17,85.9,71.7,57.2,69.4,63.3,55.8,96,77,54,30.00,29.93,10,0,10,0.00
2013-5-18,66.8,63.8,61.2,64.0,61.8,59.5,97,93,88,30.06,29.97,2,0,2,0.35
2013-5-19,75.6,69.2,65.2,70.9,67.2,64.3,98,94,83,30.03,29.93,0,0,5,0.16
2013-5-20,81.4,71.7,65.8,73.0,68.1,64.9,98,89,70,30.05,29.92,1,0,5,0.00
2013-5-21,87.3,73.6,62.3,74.8,68.2,61.2,97,85,61,29.97,29.85,7,0,7,0.00
2013-5-22,86.0,71.7,62.9,74.9,67.0,61.8,97,86,65,29.92,29.78,25,0,25,1.04
2013-5-23,81.3,67.5,62.7,73.6,65.5,60.7,97,94,73,29.90,29.74,12,0,12,0.59
2013-5-24,71.3,64.4,55.1,62.7,51.1,41.3,95,65,37,30.12,29.81,25,4,25,0.01
2013-5-25,76.6,62.2,43.7,55.4,47.1,39.6,88,60,36,30.21,30.07,12,0,12,0.00
2013-5-26,75.4,63.2,53.4,59.6,53.3,47.0,88,71,52,30.20,30.08,6,0,6,0.00
2013-5-27,82.1,67.1,50.4,68.7,58.6,49.0,96,76,52,30.18,30.04,5,0,7,0.00
2013-5-28,84.4,72.2,62.7,70.5,64.7,60.6,94,79,57,30.14,30.06,7,0,7,0.00
2013-5-29,84.4,73.0,60.9,69.3,64.5,58.8,94,76,55,30.15,30.07,7,0,7,0.00
2013-5-30,84.0,71.6,59.6,70.6,65.0,58.2,96,81,58,30.19,30.08,5,0,5,0.00
2013-5-31,85.6,74.0,64.3,71.7,67.1,62.7,96,80,57,30.15,30.02,9,0,9,0.00